| time (UTC) | temp F | wind direction | speed MPH | gust MPH | rain 1hr in | rain 24hr in | rain mn in | humidity % | barometer mb |
| 20260504234004 | 55 | 268 | 4.0 | 7.0 | 0.00 | 0.00 | 0.00 | 10 | 1022.2 |
| 20260504233004 | 53 | 271 | 2.0 | 7.0 | 0.00 | 0.00 | 0.00 | 10 | 1022.0 |
| 20260504232004 | 52 | 273 | 3.0 | 7.0 | 0.00 | 0.00 | 0.00 | 10 | 1021.9 |
| 20260504231004 | 52 | 293 | 3.0 | 5.0 | 0.00 | 0.00 | 0.00 | 10 | 1021.9 |
| 20260504230004 | 51 | 282 | 2.0 | 4.0 | 0.00 | 0.00 | 0.00 | 10 | 1021.7 |
| 20260504225004 | 51 | 273 | 2.0 | 4.0 | 0.00 | 0.00 | 0.00 | 10 | 1021.7 |
| 20260504224004 | 51 | 286 | 2.0 | 4.0 | 0.00 | 0.00 | 0.00 | 10 | 1021.5 |
| 20260504223004 | 51 | 277 | 2.0 | 4.0 | 0.00 | 0.00 | 0.00 | 10 | 1021.4 |
| 20260504222004 | 52 | 284 | 2.0 | 4.0 | 0.00 | 0.00 | 0.00 | 10 | 1021.3 |
| 20260504221003 | 52 | 274 | 2.0 | 6.0 | 0.00 | 0.00 | 0.00 | 10 | 1021.2 |
| 20260504220004 | 52 | 282 | 2.0 | 5.0 | 0.00 | 0.00 | 0.00 | 10 | 1021.1 |
| 20260504215004 | 53 | 270 | 2.0 | 6.0 | 0.00 | 0.00 | 0.00 | 10 | 1021.1 |
| 20260504214003 | 53 | 295 | 3.0 | 7.0 | 0.00 | 0.00 | 0.00 | 10 | 1021.0 |
| 20260504213004 | 53 | 275 | 4.0 | 8.0 | 0.00 | 0.00 | 0.00 | 10 | 1021.0 |
| 20260504212004 | 53 | 291 | 4.0 | 8.0 | 0.00 | 0.00 | 0.00 | 12 | 1021.0 |
| 20260504211003 | 53 | 304 | 4.0 | 9.0 | 0.00 | 0.00 | 0.00 | 14 | 1021.0 |
| 20260504210004 | 53 | 289 | 4.0 | 9.0 | 0.00 | 0.00 | 0.00 | 16 | 1021.0 |
| 20260504205003 | 53 | 297 | 4.0 | 8.0 | 0.00 | 0.00 | 0.00 | 18 | 1021.0 |
| 20260504204003 | 53 | 309 | 4.0 | 7.0 | 0.00 | 0.00 | 0.00 | 20 | 1020.9 |
| 20260504203004 | 53 | 300 | 4.0 | 8.0 | 0.00 | 0.00 | 0.00 | 20 | 1021.0 |
| 20260504202003 | 54 | 313 | 4.0 | 9.0 | 0.00 | 0.00 | 0.00 | 21 | 1021.1 |
| 20260504201004 | 54 | 308 | 4.0 | 8.0 | 0.00 | 0.00 | 0.00 | 23 | 1021.1 |
| 20260504200004 | 54 | 296 | 4.0 | 9.0 | 0.00 | 0.00 | 0.00 | 22 | 1021.1 |
| 20260504195003 | 54 | 297 | 4.0 | 9.0 | 0.00 | 0.00 | 0.00 | 22 | 1021.2 |
| 20260504194005 | 54 | 283 | 4.0 | 9.0 | 0.00 | 0.00 | 0.00 | 24 | 1021.2 |
| 20260504193005 | 54 | 311 | 4.0 | 8.0 | 0.00 | 0.00 | 0.00 | 26 | 1021.2 |
| 20260504192005 | 54 | 303 | 4.0 | 8.0 | 0.00 | 0.00 | 0.00 | 27 | 1021.2 |
| 20260504191006 | 54 | 294 | 4.0 | 9.0 | 0.00 | 0.00 | 0.00 | 29 | 1021.3 |
| 20260504190005 | 54 | 292 | 5.0 | 9.0 | 0.00 | 0.00 | 0.00 | 30 | 1021.3 |
| 20260504185005 | 54 | 297 | 3.0 | 8.0 | 0.00 | 0.00 | 0.00 | 32 | 1021.4 |
| 20260504184005 | 54 | 286 | 4.0 | 8.0 | 0.00 | 0.00 | 0.00 | 33 | 1021.4 |
| 20260504183005 | 54 | 298 | 4.0 | 8.0 | 0.00 | 0.00 | 0.00 | 34 | 1021.6 |
| 20260504182005 | 54 | 310 | 4.0 | 8.0 | 0.00 | 0.00 | 0.00 | 35 | 1021.6 |
| 20260504181005 | 55 | 306 | 1.0 | 9.0 | 0.00 | 0.00 | 0.00 | 34 | 1021.7 |
| 20260504180005 | 55 | 313 | 4.0 | 8.0 | 0.00 | 0.00 | 0.00 | 34 | 1021.6 |
| 20260504175005 | 55 | 310 | 4.0 | 9.0 | 0.00 | 0.00 | 0.00 | 35 | 1021.5 |
| 20260504174005 | 55 | 284 | 4.0 | 7.0 | 0.00 | 0.00 | 0.00 | 36 | 1021.6 |
| 20260504173005 | 55 | 296 | 4.0 | 7.0 | 0.00 | 0.00 | 0.00 | 37 | 1021.7 |
| 20260504172005 | 55 | 298 | 3.0 | 6.0 | 0.00 | 0.00 | 0.00 | 38 | 1021.7 |
| 20260504171005 | 55 | 294 | 3.0 | 6.0 | 0.00 | 0.00 | 0.00 | 39 | 1021.6 |
| 20260504151005 | 56 | 300 | 2.0 | 4.0 | 0.00 | 0.00 | 0.00 | 46 | 1022.0 |
| 20260504141005 | 58 | 312 | 2.0 | 4.0 | 0.00 | 0.00 | 0.00 | 47 | 1022.3 |
| 20260504082004 | 72 | 23 | 6.0 | 11.0 | 0.00 | 0.00 | 0.00 | 49 | 1020.9 |
| 20260504081005 | 74 | 13 | 3.0 | 8.0 | 0.00 | 0.00 | 0.00 | 44 | 1020.8 |
| 20260504050005 | 71 | 284 | 1.0 | 9.0 | 0.00 | 0.00 | 0.00 | 31 | 1021.8 |
| 20260504045004 | 70 | 268 | 2.0 | 9.0 | 0.00 | 0.00 | 0.00 | 30 | 1022.0 |
| 20260504044004 | 69 | 247 | 3.0 | 12.0 | 0.00 | 0.00 | 0.00 | 29 | 1022.2 |
| 20260504043004 | 69 | 279 | 5.0 | 8.0 | 0.00 | 0.00 | 0.00 | 28 | 1022.2 |
| 20260504042005 | 69 | 282 | 3.0 | 10.0 | 0.00 | 0.00 | 0.00 | 28 | 1022.3 |
| 20260504041004 | 69 | 252 | 4.0 | 8.0 | 0.00 | 0.00 | 0.00 | 24 | 1022.7 |
| 20260504040005 | 69 | 281 | 3.0 | 10.0 | 0.00 | 0.00 | 0.00 | 22 | 1022.8 |
| 20260504035004 | 68 | 238 | 4.0 | 10.0 | 0.00 | 0.00 | 0.00 | 22 | 1023.0 |
| 20260504034004 | 68 | 258 | 3.0 | 11.0 | 0.00 | 0.00 | 0.00 | 20 | 1023.1 |
| 20260504033005 | 69 | 240 | 4.0 | 11.0 | 0.00 | 0.00 | 0.00 | 15 | 1023.3 |
| 20260504032004 | 69 | 224 | 4.0 | 11.0 | 0.00 | 0.00 | 0.00 | 11 | 1023.3 |
| 20260504031005 | 68 | 273 | 4.0 | 11.0 | 0.00 | 0.00 | 0.00 | 11 | 1023.4 |
| 20260504030004 | 67 | 248 | 5.0 | 11.0 | 0.00 | 0.00 | 0.00 | 10 | 1023.4 |
| 20260504025004 | 68 | 260 | 4.0 | 9.0 | 0.00 | 0.00 | 0.00 | 10 | 1023.7 |
| 20260504024005 | 67 | 236 | 4.0 | 11.0 | 0.00 | 0.00 | 0.00 | 10 | 1023.7 |
| 20260504023004 | 66 | 241 | 5.0 | 11.0 | 0.00 | 0.00 | 0.00 | 10 | 1023.9 |
| 20260504022004 | 59 | 258 | 4.0 | 11.0 | 0.00 | 0.00 | 0.00 | 10 | 1023.9 |
| 20260504021004 | 60 | 248 | 6.0 | 12.0 | 0.00 | 0.00 | 0.00 | 10 | 1023.9 |
| 20260504020004 | 65 | 251 | 2.0 | 11.0 | 0.00 | 0.00 | 0.00 | 10 | 1024.0 |
| 20260504015004 | 64 | 256 | 8.0 | 10.0 | 0.00 | 0.00 | 0.00 | 10 | 1023.9 |
| 20260504014004 | 66 | 253 | 4.0 | 10.0 | 0.00 | 0.00 | 0.00 | 10 | 1023.9 |
| 20260504013004 | 44 | 251 | 4.0 | 9.0 | 0.00 | 0.00 | 0.00 | 10 | 1023.8 |
| 20260504012004 | 48 | 260 | 4.0 | 8.0 | 0.00 | 0.00 | 0.00 | 10 | 1023.9 |
| 20260504011004 | 61 | 252 | 4.0 | 8.0 | 0.00 | 0.00 | 0.00 | 10 | 1024.0 |
| 20260504010004 | 61 | 260 | 2.0 | 8.0 | 0.00 | 0.00 | 0.00 | 10 | 1024.0 |
| 20260504005004 | 60 | 248 | 2.0 | 6.0 | 0.00 | 0.00 | 0.00 | 10 | 1024.0 |
| 20260504004004 | 60 | 260 | 3.0 | 8.0 | 0.00 | 0.00 | 0.00 | 10 | 1024.0 |
| 20260504003005 | 59 | 263 | 4.0 | 6.0 | 0.00 | 0.00 | 0.00 | 10 | 1024.1 |
| 20260504002004 | 58 | 266 | 3.0 | 7.0 | 0.00 | 0.00 | 0.00 | 10 | 1023.9 |
| 20260504001004 | 58 | 269 | 3.0 | 6.0 | 0.00 | 0.00 | 0.00 | 10 | 1023.9 |
| 20260504000005 | 57 | 272 | 2.0 | 5.0 | 0.00 | 0.00 | 0.00 | 10 | 1023.8 |
| 20260503235004 | 56 | 272 | 2.0 | 4.0 | 0.00 | 0.00 | 0.00 | 10 | 1023.7 |